Location: Olsztyn
(53.7767°N, 20.4765°E)
Time: 19:09:12
(UTC+02:00)

Envisat - Pass Details

Date: 02 March 2024
Orbit: 762 x 764 km, 98.3° (Epoch: 20 April)

Event Time Altitude Azimuth Distance (km) Brightness Sun altitude
Rises 05:39:42 0° 5° (N) 3,246 6.3 -7.2°
Reaches altitude 10° 05:43:37 10° 335° (NNW) 2,314 5.2 -6.6°
Maximum altitude 05:45:20 12° 315° (NW) 2,193 4.9 -6.4°
Drops below altitude 10° 05:47:03 10° 295° (WNW) 2,310 4.9 -6.1°
Enters shadow 05:48:30 - 281° (W) 2,569 5.0 -5.9°
